Location: Dal�� Lhota
(48.7500°N, 14.0167°E)
Time: 07:41:20
(UTC+00:00)

Transit 2A - Pass Details

Date: 31 July 2021
Orbit: 594 x 964 km, 66.7° (Epoch: 24 September)

Event Time Altitude Azimuth Distance (km) Brightness Sun altitude
Rises 05:47:29 0° 211° (SSW) 2,833 8.6 19.6°
Reaches altitude 10° 05:49:39 10° 211° (SSW) 1,952 7.9 20.0°
Maximum altitude 05:54:01 83° 124° (SE) 643 6.1 20.7°
Drops below altitude 10° 05:58:45 10° 37° (NE) 2,110 9.0 21.5°
Sets 06:01:10 0° 37° (NE) 3,084 9.7 21.9°
